• Join FlightAware (Why Join?)
  • Login
  • US Flag 
04:26PM EST


 

Airport Tracker/Info


-or-


 

Live Flight TrackerFlight Track Log ✈ KEY852 ✈ 25-Feb-2012 ✈ KTEB - KBAF

Flight Track Log - Related Links

Times and Time Zones

All times are in EST time to prevent confusion due to time zone crossing. See the KEY852 flight status page for this flight to view local times or setup timezone preferences in your user account.

Time Position Orientation Groundspeed Altitude Reporting Facility
EST Latitude Longitude Course Direction KTS MPH feet Rate Location/Type
07:20PM 40.8333 -74.0833 252° West 186 214 1,100  Level New York TRACON
07:21PM 40.8167 -74.1500 270° West 184 212 2,000 1,905 Climbing New York TRACON
07:22PM 40.8167 -74.2333 360° North 205 236 5,100 2,238 Climbing New York TRACON
07:23PM 40.8667 -74.2333 45° Northeast 233 268 6,700 2,400 Climbing New York TRACON
07:24PM 40.9167 -74.1667 43° Northeast 297 342 9,900 1,650 Climbing New York TRACON
07:25PM 40.9833 -74.0833 56° Northeast 333 383 10,000 100 Climbing New York TRACON
07:26PM 41.0333 -73.9833 48° Northeast 332 382 10,100 50 Climbing New York TRACON
07:27PM 41.1000 -73.8833 48° Northeast 345 397 10,100  Level New York TRACON
07:28PM 41.1667 -73.7833 56° Northeast 365 420 10,100  Level New York TRACON
07:29PM 41.2167 -73.6833 56° Northeast 343 395 10,100  Level New York TRACON
07:30PM 41.2667 -73.5833 43° Northeast 337 388 10,100  Level New York TRACON
07:31PM 41.3333 -73.5000 42° Northeast 331 381 10,100 -58 Level New York TRACON
07:32PM 41.3872 -73.4361 44° Northeast 333 383 10,000 -114 Descending Boston Center
07:33PM 41.4547 -73.3486 44° Northeast 338 389 9,900  Descending Boston Center
07:34PM 41.5222 -73.2608 45° Northeast 339 390 10,000 50 Climbing Boston Center
07:35PM 41.5872 -73.1728 29° Northeast 337 388 10,000  Level Boston Center
07:36PM 41.6772 -73.1072 30° Northeast 328 377 10,000 -248 Level Boston Center
07:37PM 41.7381 -73.0606 38° Northeast 280 322 9,500 -1,148 Descending Boston Center
07:38PM 41.7989 -72.9969 47° Northeast 271 312 7,800 -1,426 Descending Boston Center
07:39PM 41.8492 -72.9250 47° Northeast 269 310 6,600 -1,200 Descending Boston Center
07:40PM 41.8953 -72.8583 50° Northeast 267 307 5,500 -1,043 Descending Boston Center
07:41PM 41.9392 -72.7889 23° Northeast 242 278 4,600 -1,041 Descending Boston Center
07:42PM 41.9914 -72.7586 11° North 186 214 3,400 -1,041 Descending Boston Center
07:43PM 42.0353 -72.7475 North 163 188 2,500 -787 Descending Boston Center
07:44PM 42.0750 -72.7394 12° North 136 157 1,800 -709 Descending Boston Center
07:45PM 42.1125 -72.7283 12° North 129 148 1,000 -727 Descending Boston Center